EW9652 Weather Reports


Display with metric or nautical units.
time (UTC)temp
F
wind
direction
speed
MPH
gust
MPH
rain 1hr
in
rain 24hr
in
rain mn
in
humidity
%
barometer
mb
20260508173928 77 77 4.0 9.0 0.00 0.00 0.00 26 1010.9
20260508173426 76 314 5.0 10.0 0.00 0.00 0.00 26 1011.1
20260508172926 77 344 4.0 10.0 0.00 0.00 0.00 25 1011.1
20260508172701 77 266 2.0 9.0 0.00 0.00 0.00 26 1011.2
20260508171924 77 288 3.0 9.0 0.00 0.00 0.00 26 1011.2
20260508171423 76 271 3.0 9.0 0.00 0.00 0.00 26 1011.3
20260508170917 76 346 1.0 9.0 0.00 0.00 0.00 26 1011.4
20260508170416 76 212 2.0 8.0 0.00 0.00 0.00 28 1011.4
20260508165916 76 326 3.0 8.0 0.00 0.00 0.00 28 1011.5
20260508165418 75 13 2.0 5.0 0.00 0.00 0.00 30 1011.5
20260508164916 75 25 2.0 6.0 0.00 0.00 0.00 33 1011.5
20260508164908 74 212 2.0 6.0 0.00 0.00 0.00 35 1011.7
20260508163903 73 321 2.0 8.0 0.00 0.00 0.00 36 1011.8
20260508163633 73 253 2.0 8.0 0.00 0.00 0.00 36 1011.9
20260508162903 73 290 3.0 8.0 0.00 0.00 0.00 38 1011.9
20260508162400 72 219 4.0 11.0 0.00 0.00 0.00 38 1012.0
20260508161856 72 257 4.0 11.0 0.00 0.00 0.00 39 1012.1
20260508161357 71 290 5.0 8.0 0.00 0.00 0.00 40 1012.1
20260508160854 70 276 6.0 12.0 0.00 0.00 0.00 41 1012.2
20260508160354 70 304 6.0 12.0 0.00 0.00 0.00 41 1012.1
20260508155856 70 309 5.0 11.0 0.00 0.00 0.00 41 1012.2
20260508155352 69 297 6.0 11.0 0.00 0.00 0.00 42 1012.3
20260508154852 69 238 7.0 12.0 0.00 0.00 0.00 43 1012.3
20260508154623 68 265 7.0 12.0 0.00 0.00 0.00 43 1012.3
20260508153850 68 257 6.0 13.0 0.00 0.00 0.00 44 1012.4
20260508153350 67 283 7.0 13.0 0.00 0.00 0.00 47 1012.4
20260508152849 67 249 8.0 16.0 0.00 0.00 0.00 47 1012.5
20260508152348 67 224 7.0 16.0 0.00 0.00 0.00 48 1012.7
20260508152119 66 89 7.0 15.0 0.00 0.00 0.00 49 1012.5
20260508151347 66 269 7.0 13.0 0.00 0.00 0.00 50 1012.6
20260508150846 66 254 8.0 14.0 0.00 0.00 0.00 51 1012.6
20260508150346 66 231 7.0 15.0 0.00 0.00 0.00 52 1012.6
20260508145846 65 264 6.0 15.0 0.00 0.00 0.00 52 1012.5
20260508145615 65 347 7.0 14.0 0.00 0.00 0.00 55 1012.6
20260508144844 63 279 7.0 14.0 0.00 0.00 0.00 58 1012.5
20260508144615 63 274 7.0 13.0 0.00 0.00 0.00 58 1012.7
20260508143842 63 202 7.0 15.0 0.00 0.00 0.00 58 1012.7
20260508143342 63 217 8.0 15.0 0.00 0.00 0.00 59 1012.8
20260508142843 62 224 8.0 15.0 0.00 0.00 0.00 59 1012.8
20260508142613 62 241 8.0 15.0 0.00 0.00 0.00 58 1012.9
20260508141843 62 254 7.0 17.0 0.00 0.00 0.00 60 1013.0
20260508141343 62 182 8.0 17.0 0.00 0.00 0.00 61 1013.0
20260508140840 61 211 9.0 17.0 0.00 0.00 0.00 61 1013.0
20260508140338 61 248 8.0 15.0 0.00 0.00 0.00 62 1013.1
20260508135836 61 274 7.0 14.0 0.00 0.00 0.00 62 1013.2
20260508135337 61 285 8.0 14.0 0.00 0.00 0.00 63 1013.3
20260508134837 60 248 8.0 15.0 0.00 0.00 0.00 63 1013.2
20260508134341 60 225 8.0 17.0 0.00 0.00 0.00 64 1013.2
20260508133836 60 250 7.0 17.0 0.00 0.00 0.00 65 1013.0
20260508133336 59 207 6.0 15.0 0.00 0.00 0.00 66 1012.9
20260508132836 58 273 7.0 15.0 0.00 0.00 0.00 67 1012.9
20260508132336 58 257 6.0 15.0 0.00 0.00 0.00 67 1012.9
20260508132102 57 231 5.0 11.0 0.00 0.00 0.00 68 1013.1
20260508131330 56 179 6.0 12.0 0.00 0.00 0.00 68 1013.2
20260508131101 56 246 5.0 12.0 0.00 0.00 0.00 68 1013.1
20260508130328 56 226 4.0 11.0 0.00 0.00 0.00 69 1013.1
20260508125328 55 269 5.0 10.0 0.00 0.00 0.00 70 1013.1
20260508124827 55 345 4.0 10.0 0.00 0.00 0.00 71 1013.1
20260508124327 54 252 5.0 9.0 0.00 0.00 0.00 71 1013.0
20260508124057 54 205 4.0 11.0 0.00 0.00 0.00 70 1013.2
20260508123324 54 224 4.0 11.0 0.00 0.00 0.00 71 1013.1
20260508122824 54 213 5.0 11.0 0.00 0.00 0.00 71 1012.8
20260508122324 54 207 5.0 12.0 0.00 0.00 0.00 72 1012.6
20260508121822 54 278 8.0 12.0 0.00 0.00 0.00 73 1012.5
20260508121322 53 272 8.0 16.0 0.00 0.00 0.00 73 1012.5
20260508120821 53 184 7.0 16.0 0.00 0.00 0.00 72 1012.7
20260508120320 53 223 6.0 11.0 0.00 0.00 0.00 71 1012.8
20260508115820 53 201 8.0 11.0 0.00 0.00 0.00 70 1012.8
20260508115321 54 214 7.0 11.0 0.00 0.00 0.00 69 1012.7
20260508114818 55 197 6.0 11.0 0.00 0.00 0.00 70 1012.9
20260508114318 55 243 7.0 13.0 0.00 0.00 0.00 69 1012.8
20260508113818 55 255 9.0 15.0 0.00 0.00 0.00 68 1012.8
20260508113318 55 264 8.0 15.0 0.00 0.00 0.00 69 1012.9
20260508112816 55 281 7.0 13.0 0.00 0.00 0.00 68 1012.8
20260508112316 55 263 7.0 12.0 0.00 0.00 0.00 68 1012.8
20260508111815 55 206 8.0 13.0 0.00 0.00 0.00 69 1012.7
20260508111314 55 214 8.0 14.0 0.00 0.00 0.00 68 1012.8
20260508110812 55 259 7.0 14.0 0.00 0.00 0.00 68 1012.8
20260508110311 55 341 7.0 14.0 0.00 0.00 0.00 68 1012.9
20260508105812 55 218 6.0 11.0 0.00 0.00 0.00 68 1012.9
20260508105541 55 243 7.0 13.0 0.00 0.00 0.00 68 1012.9
20260508104811 55 238 8.0 13.0 0.00 0.00 0.00 68 1013.0
20260508104310 55 271 9.0 14.0 0.00 0.00 0.00 68 1013.0
20260508103810 54 236 7.0 14.0 0.00 0.00 0.00 68 1013.2
20260508103310 54 224 6.0 11.0 0.00 0.00 0.00 67 1013.3
20260508102811 54 264 6.0 11.0 0.00 0.00 0.00 66 1013.4
20260508102307 55 281 6.0 12.0 0.00 0.00 0.00 66 1013.3
20260508101806 55 205 7.0 13.0 0.00 0.00 0.00 66 1013.2
20260508101305 55 193 9.0 16.0 0.00 0.00 0.00 68 1013.2
20260508100804 56 125 9.0 16.0 0.00 0.00 0.00 67 1013.2
20260508100302 56 193 9.0 15.0 0.00 0.00 0.00 66 1013.2
20260508095802 56 229 9.0 15.0 0.00 0.00 0.00 67 1013.2
20260508095305 56 216 10.0 21.0 0.00 0.00 0.00 66 1013.2
20260508094802 56 205 11.0 21.0 0.00 0.00 0.00 65 1013.3
20260508094302 56 215 10.0 17.0 0.00 0.00 0.00 66 1013.4
20260508093802 56 238 11.0 20.0 0.00 0.00 0.00 65 1013.5
20260508093302 56 222 11.0 20.0 0.00 0.00 0.00 65 1013.5
20260508092759 56 200 10.0 16.0 0.00 0.00 0.00 65 1013.6
20260508092258 56 217 11.0 20.0 0.00 0.00 0.00 64 1013.6
20260508091756 57 214 12.0 20.0 0.00 0.00 0.00 63 1013.7
20260508091256 57 217 11.0 20.0 0.00 0.00 0.00 63 1013.8
20260508090756 57 238 12.0 17.0 0.00 0.00 0.00 63 1013.8
20260508090256 57 187 11.0 17.0 0.00 0.00 0.00 63 1013.8
20260508090027 57 210 11.0 16.0 0.00 0.00 0.00 62 1013.9
20260508085255 56 209 11.0 16.0 0.00 0.00 0.00 62 1013.9
20260508084752 56 231 12.0 17.0 0.00 0.00 0.00 61 1013.9
20260508084251 56 218 11.0 17.0 0.00 0.00 0.00 61 1014.0
20260508083752 56 210 11.0 15.0 0.00 0.00 0.00 61 1014.1
20260508083251 56 236 10.0 14.0 0.00 0.00 0.00 61 1014.0
20260508082753 55 237 9.0 13.0 0.00 0.00 0.00 61 1014.1
20260508082249 54 214 8.0 12.0 0.00 0.00 0.00 61 1014.1
20260508081750 54 206 8.0 10.0 0.00 0.00 0.00 60 1014.2
20260508081250 54 203 7.0 10.0 0.00 0.00 0.00 59 1014.2
20260508080750 54 200 6.0 10.0 0.00 0.00 0.00 59 1014.3
20260508080250 54 216 6.0 10.0 0.00 0.00 0.00 58 1014.4
20260508075745 55 205 7.0 10.0 0.00 0.00 0.00 57 1014.3
20260508075246 55 188 6.0 10.0 0.00 0.00 0.00 57 1014.4
20260508074745 55 212 7.0 10.0 0.00 0.00 0.00 55 1014.4
20260508074246 55 195 8.0 11.0 0.00 0.00 0.00 55 1014.5
20260508073743 56 205 7.0 11.0 0.00 0.00 0.00 54 1014.5
20260508073243 56 203 7.0 10.0 0.00 0.00 0.00 54 1014.6
20260508073013 56 212 8.0 10.0 0.00 0.00 0.00 53 1014.6
20260508072241 57 204 8.0 11.0 0.00 0.00 0.00 52 1014.6
20260508071742 57 237 7.0 11.0 0.00 0.00 0.00 52 1014.6
20260508071240 56 237 6.0 10.0 0.00 0.00 0.00 52 1014.7
20260508070740 56 209 7.0 9.0 0.00 0.00 0.00 52 1014.7
20260508070238 56 212 6.0 9.0 0.00 0.00 0.00 52 1014.8
20260508065738 57 208 5.0 8.0 0.00 0.00 0.00 51 1014.8
20260508065238 57 184 5.0 10.0 0.00 0.00 0.00 51 1014.9
20260508064738 58 193 7.0 10.0 0.00 0.00 0.00 49 1014.9
20260508064236 58 209 7.0 10.0 0.00 0.00 0.00 49 1014.8
20260508063735 58 207 7.0 10.0 0.00 0.00 0.00 49 1014.8
20260508063236 58 203 7.0 10.0 0.00 0.00 0.00 48 1014.8
20260508062733 58 213 7.0 9.0 0.00 0.00 0.00 48 1014.8
20260508062235 58 212 7.0 9.0 0.00 0.00 0.00 48 1014.8
20260508061735 58 213 7.0 9.0 0.00 0.00 0.00 47 1014.9
20260508061233 58 201 7.0 10.0 0.00 0.00 0.00 47 1015.0
20260508060734 58 203 6.0 10.0 0.00 0.00 0.00 47 1015.0
20260508060500 58 219 5.0 10.0 0.00 0.00 0.00 47 1015.1
20260508060001 58 200 5.0 7.0 0.00 0.00 0.00 47 1015.1
20260508055228 58 191 5.0 7.0 0.00 0.00 0.00 46 1015.2
20260508054728 58 174 5.0 7.0 0.00 0.00 0.00 46 1015.2
20260508054227 58 203 5.0 7.0 0.00 0.00 0.00 45 1015.2
20260508053728 58 191 5.0 8.0 0.00 0.00 0.00 45 1015.2
20260508053228 58 201 6.0 8.0 0.00 0.00 0.00 44 1015.3
20260508052728 59 199 6.0 9.0 0.00 0.00 0.00 44 1015.2
20260508052225 59 188 6.0 9.0 0.00 0.00 0.00 43 1015.2
20260508051726 59 192 7.0 10.0 0.00 0.00 0.00 43 1015.2
20260508051226 59 204 7.0 10.0 0.00 0.00 0.00 43 1015.2
20260508050726 59 207 7.0 10.0 0.00 0.00 0.00 42 1015.3
20260508050223 59 188 6.0 9.0 0.00 0.00 0.00 42 1015.3
20260508045722 59 203 6.0 9.0 0.00 0.00 0.00 41 1015.3
20260508045222 59 191 6.0 9.0 0.00 0.00 0.00 42 1015.3
20260508044723 59 191 7.0 9.0 0.00 0.00 0.00 41 1015.3
20260508044222 59 200 7.0 9.0 0.00 0.00 0.00 41 1015.3
20260508043953 60 204 6.0 9.0 0.00 0.00 0.00 40 1015.4
20260508043221 60 191 6.0 10.0 0.00 0.00 0.00 40 1015.5
20260508042722 60 203 7.0 10.0 0.00 0.00 0.00 39 1015.5
20260508042451 61 225 7.0 10.0 0.00 0.00 0.00 39 1015.5
20260508041725 61 207 6.0 10.0 0.00 0.00 0.00 38 1015.5
20260508041720 61 192 5.0 8.0 0.00 0.00 0.00 38 1015.6
20260508040948 61 0 5.0 7.0 0.00 0.00 0.00 38 1015.6
20260508040218 62 191 6.0 9.0 0.00 0.00 0.00 37 1015.4
20260508035715 62 197 6.0 9.0 0.00 0.00 0.00 37 1015.4
20260508035216 62 193 6.0 9.0 0.00 0.00 0.00 36 1015.4
20260508034716 62 203 7.0 9.0 0.00 0.00 0.00 36 1015.3
20260508034447 62 198 7.0 9.0 0.00 0.00 0.00 36 1015.3
20260508033715 63 167 7.0 9.0 0.00 0.00 0.00 35 1015.4
20260508033213 63 195 6.0 9.0 0.00 0.00 0.00 34 1015.3
20260508032716 63 186 5.0 7.0 0.00 0.00 0.00 34 1015.4
20260508032209 64 193 5.0 8.0 0.00 0.00 0.00 33 1015.4
20260508031710 64 205 6.0 9.0 0.00 0.00 0.00 33 1015.4
20260508031208 64 183 6.0 9.0 0.00 0.00 0.00 33 1015.3
20260508030707 64 182 5.0 8.0 0.00 0.00 0.00 32 1015.2
20260508030206 65 197 6.0 8.0 0.00 0.00 0.00 32 1015.2
20260508025707 65 179 5.0 8.0 0.00 0.00 0.00 32 1015.0
20260508025205 65 198 4.0 6.0 0.00 0.00 0.00 32 1014.9
20260508024707 65 180 4.0 6.0 0.00 0.00 0.00 31 1014.8
20260508024437 66 179 4.0 6.0 0.00 0.00 0.00 30 1014.8
20260508023707 67 193 4.0 6.0 0.00 0.00 0.00 30 1014.6
20260508023204 67 205 5.0 6.0 0.00 0.00 0.00 30 1014.7
20260508022702 67 191 5.0 6.0 0.00 0.00 0.00 29 1014.7
20260508022202 67 187 4.0 7.0 0.00 0.00 0.00 29 1014.7
20260508021706 68 196 5.0 7.0 0.00 0.00 0.00 28 1014.7
20260508021202 68 179 5.0 7.0 0.00 0.00 0.00 28 1014.7
20260508020931 69 193 5.0 6.0 0.00 0.00 0.00 27 1014.7
20260508020159 70 199 5.0 8.0 0.00 0.00 0.00 27 1014.7
20260508015657 70 193 4.0 8.0 0.00 0.00 0.00 27 1014.6
20260508015158 71 203 4.0 7.0 0.00 0.00 0.00 26 1014.6
20260508014656 71 195 5.0 7.0 0.00 0.00 0.00 25 1014.4
20260508014155 72 195 5.0 8.0 0.00 0.00 0.00 25 1014.4
20260508013656 73 203 5.0 9.0 0.00 0.00 0.00 24 1014.4
20260508013154 74 209 6.0 10.0 0.00 0.00 0.00 23 1014.3
20260508012653 74 179 8.0 13.0 0.00 0.00 0.00 23 1014.3
20260508012152 74 203 7.0 13.0 0.00 0.00 0.00 24 1014.2
20260508011653 75 266 7.0 12.0 0.00 0.00 0.00 24 1014.2
20260508011152 75 311 7.0 12.0 0.00 0.00 0.00 23 1014.2
20260508010651 75 206 8.0 12.0 0.00 0.00 0.00 23 1014.2
20260508010152 75 203 9.0 15.0 0.00 0.00 0.00 24 1014.2
20260508005920 75 197 8.0 15.0 0.00 0.00 0.00 22 1014.2
20260508005420 76 224 7.0 14.0 0.00 0.00 0.00 22 1014.3
20260508004651 76 212 7.0 14.0 0.00 0.00 0.00 22 1014.3
20260508004147 76 233 6.0 13.0 0.00 0.00 0.00 23 1014.3
20260508003647 76 262 8.0 13.0 0.00 0.00 0.00 23 1014.4
20260508003148 76 244 10.0 17.0 0.00 0.00 0.00 23 1014.4
20260508002648 76 221 9.0 17.0 0.00 0.00 0.00 22 1014.4
20260508002146 76 212 9.0 16.0 0.00 0.00 0.00 22 1014.4
20260508001646 76 265 8.0 16.0 0.00 0.00 0.00 22 1014.5
20260508001145 76 201 7.0 16.0 0.00 0.00 0.00 23 1014.4
20260508000915 76 245 9.0 16.0 0.00 0.00 0.00 23 1014.5
20260508000143 76 234 7.0 15.0 0.00 0.00 0.00 21 1014.5
20260507235643 76 212 8.0 15.0 0.00 0.00 0.00 22 1014.5
20260507235414 76 233 8.0 15.0 0.00 0.00 0.00 20 1014.5
20260507234639 76 248 7.0 14.0 0.00 0.00 0.00 21 1014.6
20260507234140 76 210 7.0 14.0 0.00 0.00 0.00 22 1014.5
20260507233637 76 177 9.0 17.0 0.00 0.00 0.00 24 1014.6
20260507233137 76 204 8.0 20.0 0.00 0.00 0.00 22 1014.7
20260507232638 76 225 8.0 20.0 0.00 0.00 0.00 22 1014.8
20260507232135 76 204 9.0 17.0 0.00 0.00 0.00 22 1014.8
20260507231636 76 234 9.0 17.0 0.00 0.00 0.00 22 1014.9
20260507231135 75 221 9.0 16.0 0.00 0.00 0.00 24 1014.9
20260507230635 76 195 8.0 16.0 0.00 0.00 0.00 23 1015.0
20260507230136 76 221 7.0 16.0 0.00 0.00 0.00 22 1015.0
20260507225637 76 245 6.0 16.0 0.00 0.00 0.00 22 1015.1
20260507225131 75 288 6.0 14.0 0.00 0.00 0.00 22 1015.1
20260507224632 76 203 8.0 18.0 0.00 0.00 0.00 23 1015.1
20260507224131 76 243 8.0 18.0 0.00 0.00 0.00 22 1015.2
20260507223632 76 203 10.0 20.0 0.00 0.00 0.00 22 1015.3
20260507223129 75 264 9.0 20.0 0.00 0.00 0.00 21 1015.4
20260507222627 76 221 7.0 15.0 0.00 0.00 0.00 22 1015.5
20260507222128 75 272 9.0 20.0 0.00 0.00 0.00 22 1015.6
20260507221628 75 241 9.0 20.0 0.00 0.00 0.00 22 1015.5
20260507221127 75 281 6.0 14.0 0.00 0.00 0.00 22 1015.6
20260507220627 75 245 7.0 17.0 0.00 0.00 0.00 23 1015.6
20260507220124 74 250 9.0 19.0 0.00 0.00 0.00 24 1015.8
20260507215625 74 230 8.0 19.0 0.00 0.00 0.00 23 1015.8
20260507215125 74 283 8.0 16.0 0.00 0.00 0.00 24 1015.9
20260507214627 74 253 11.0 17.0 0.00 0.00 0.00 24 1016.1
20260507214121 74 274 10.0 17.0 0.00 0.00 0.00 24 1016.2
20260507213621 74 244 10.0 18.0 0.00 0.00 0.00 24 1016.2
20260507213352 74 239 10.0 23.0 0.00 0.00 0.00 25 1016.3
20260507212619 74 271 8.0 23.0 0.00 0.00 0.00 24 1016.4
20260507212119 73 250 8.0 19.0 0.00 0.00 0.00 26 1016.5
20260507211619 73 224 9.0 18.0 0.00 0.00 0.00 26 1016.7
20260507211117 72 203 11.0 20.0 0.00 0.00 0.00 27 1016.8
20260507210848 72 265 11.0 20.0 0.00 0.00 0.00 26 1017.0
20260507210346 72 192 9.0 17.0 0.00 0.00 0.00 27 1017.0
20260507205615 72 223 9.0 18.0 0.00 0.00 0.00 28 1017.1
20260507205115 72 262 10.0 22.0 0.00 0.00 0.00 27 1017.1
20260507204617 72 245 9.0 22.0 0.00 0.00 0.00 27 1017.3
20260507204107 72 250 9.0 19.0 0.00 0.00 0.00 27 1017.4
20260507203607 71 257 8.0 19.0 0.00 0.00 0.00 28 1017.6
20260507203103 71 247 8.0 17.0 0.00 0.00 0.00 28 1017.6
20260507202603 70 218 9.0 17.0 0.00 0.00 0.00 31 1017.8
20260507202103 70 185 9.0 16.0 0.00 0.00 0.00 30 1017.9
20260507201602 70 259 8.0 16.0 0.00 0.00 0.00 30 1018.0
20260507201059 70 222 8.0 17.0 0.00 0.00 0.00 30 1018.1
20260507200829 69 186 8.0 17.0 0.00 0.00 0.00 31 1018.2
20260507200059 70 260 8.0 17.0 0.00 0.00 0.00 30 1018.3
20260507195557 69 226 6.0 17.0 0.00 0.00 0.00 27 1018.6
20260507195057 69 207 4.0 13.0 0.00 0.00 0.00 33 1018.6
20260507194555 69 319 5.0 17.0 0.00 0.00 0.00 33 1018.7
20260507194056 69 296 6.0 17.0 0.00 0.00 0.00 32 1018.9
20260507193555 69 261 6.0 16.0 0.00 0.00 0.00 33 1019.0
20260507193055 68 177 7.0 16.0 0.00 0.00 0.00 32 1019.1
20260507192554 68 215 7.0 14.0 0.00 0.00 0.00 34 1019.2
20260507192053 68 255 7.0 14.0 0.00 0.00 0.00 34 1019.3
20260507191553 67 226 8.0 16.0 0.00 0.00 0.00 36 1019.4
20260507191050 67 271 7.0 16.0 0.00 0.00 0.00 36 1019.6
20260507190552 67 254 6.0 15.0 0.00 0.00 0.00 38 1019.7
20260507190051 66 281 6.0 15.0 0.00 0.00 0.00 38 1019.7
20260507185549 66 251 6.0 13.0 0.00 0.00 0.00 39 1019.9
20260507185049 66 260 5.0 13.0 0.00 0.00 0.00 38 1020.0
20260507184814 66 237 5.0 17.0 0.00 0.00 0.00 40 1020.0
20260507184042 65 245 7.0 17.0 0.00 0.00 0.00 40 1020.2
20260507183808 65 195 6.0 17.0 0.00 0.00 0.00 41 1020.3
20260507183037 65 252 5.0 17.0 0.00 0.00 0.00 41 1020.5
20260507182537 64 345 6.0 14.0 0.00 0.00 0.00 42 1020.6
20260507182035 63 252 7.0 14.0 0.00 0.00 0.00 43 1020.8
20260507181536 63 261 8.0 16.0 0.00 0.00 0.00 43 1021.0
20260507181035 63 243 7.0 16.0 0.00 0.00 0.00 43 1021.0
20260507180535 63 277 8.0 14.0 0.00 0.00 0.00 43 1021.1
20260507180036 63 237 8.0 14.0 0.00 0.00 0.00 45 1021.2
20260507175536 62 262 8.0 15.0 0.00 0.00 0.00 45 1021.5
20260507175532 62 238 8.0 15.0 0.00 0.00 0.00 46 1021.3
20260507174532 62 192 7.0 14.0 0.00 0.00 0.00 47 1021.5
20260507174030 61 284 7.0 16.0 0.00 0.00 0.00 48 1021.6